Location: Caltech
(34.1382°N, 118.1253°W)
Time: 17:32:59
(UTC-07:00)

Cosmos 1943 Rocket - Visible Passes

Search period start: 27 March 2017 00:00
Search period end: 06 April 2017 00:00
Orbit: 811 x 845 km, 71.0° (Epoch: 26 March)

Date Brightness Start Highest point End Pass type
(mag) Time Alt. Az. Time Alt. Az. Time Alt. Az.
30 Mar 4.4 22:11:40 16° NNE 22:11:40 16° NNE 22:12:46 10° NNE visible
31 Mar 3.4 21:50:38 32° N 21:50:38 32° N 21:53:38 10° NNE visible
01 Apr 2.1 21:23:17 10° SSW 21:28:50 84° WNW 21:34:29 10° NNE visible
01 Apr 5.1 23:12:23 10° WNW 23:13:25 10° NW 23:14:28 10° NW visible
02 Apr 2.0 21:04:07 10° SSW 21:09:41 84° ESE 21:15:19 10° NNE visible
02 Apr 5.0 22:51:57 10° WNW 22:54:07 12° NW 22:56:19 10° NNW visible
03 Apr 5.0 06:01:28 10° N 06:05:39 21° ENE 06:09:47 10° ESE visible
03 Apr 2.0 20:45:00 10° SSW 20:50:31 73° ESE 20:56:08 10° NNE visible
03 Apr 5.0 22:31:58 10° W 22:34:51 14° NW 22:37:44 10° NNW visible
04 Apr 5.0 05:42:35 10° NNE 05:46:24 18° ENE 05:50:11 10° E visible
04 Apr 2.1 20:25:54 10° S 20:31:22 63° ESE 20:36:56 10° NNE visible
04 Apr 4.9 22:12:11 10° W 22:15:34 16° NW 22:18:59 10° NNW visible
05 Apr 5.1 05:23:45 10° NNE 05:27:08 16° NE 05:30:29 10° E visible
05 Apr 2.2 20:06:50 10° S 20:12:14 54° ESE 20:17:42 10° NNE visible
05 Apr 4.8 21:52:30 10° W 21:56:18 18° WNW 22:00:09 10° NNW visible
